Air Resources Laboratory banner image
Air Resources Laboratory web site National Oceanic and Atmospheric Administration (NOAA)

nh roundup


Office: GYX

ASUS41 KGYX 251105
RWRGYX
WEATHER ROUNDUP FOR MAINE AND NEW HAMPSHIRE
NATIONAL WEATHER SERVICE GRAY ME
700 AM EDT FRI MAY 25 2018

MEZ002-005-006-010-012-015-018-020-021-024-026-027-029-251200-
MAINE

CITY           SKY/WX    TMP DP  RH WIND       PRES   REMARKS
PORTLAND       FAIR      63  49  60 SW8       29.85S
SANFORD        FAIR      65  49  56 W9        29.89S
BAR HARBOR     FAIR      54  49  83 SW10      29.77F
WISCASSET      FAIR      56  52  86 CALM      29.83F
ROCKLAND       FAIR      56  50  80 W12       29.80F
FRYEBURG       FAIR      67  45  45 VRB6      29.84F
LEWISTONAUBURN FAIR      53  49  86 CALM      29.83S
AUGUSTA        FAIR      56  47  71 SW7       29.80F
WATERVILLE     FAIR      50  48  93 SW6       29.76F
BANGOR         FAIR      55  48  77 S8        29.74F
GREENVILLE       N/A     64  45  49 VRB3      29.70F
MILLINOCKET    FAIR      53  45  74 CALM      29.71S
HOULTON        FAIR      50  48  93 S6        29.68
PRESQUE ISLE   LGT RAIN  48  46  93 S8        29.70R
FRENCHVILLE    LGT RAIN  48  45  89 S13       29.63F
CARIBOU        LGT RAIN  49  46  90 S6        29.67S
$$

NHZ002-005-008-009-011-012-014-251200-
NEW HAMPSHIRE

CITY           SKY/WX    TMP DP  RH WIND       PRES   REMARKS
PORTSMOUTH     MOSUNNY   60  50  69 SW9       29.88F
ROCHESTER      FAIR      61  51  70 CALM      29.89F
NASHUA         FAIR      64  50  60 SW5       29.94F
MANCHESTER     FAIR      63  49  60 S6        29.91F
CONCORD        FAIR      58  51  78 SE6       29.92F
LACONIA        FAIR      59  49  69 NW3       29.90F
PLYMOUTH       FAIR      45  44  97 CALM      29.91F
BERLIN         FAIR      52  46  80 CALM      29.86S
WHITEFIELD     FAIR      46  43  89 CALM      29.89F
JAFFREY        FAIR      54  51  90 S9        29.99F
KEENE          FAIR      49  48  97 S3        29.99
LEBANON        FAIR      52  46  80 CALM      29.92F
MT WASHINGTON  NOT AVBL
$$

VTZ005-007-008-251200-
VERMONT

CITY           SKY/WX    TMP DP  RH WIND       PRES   REMARKS
ST JOHNSBURY     N/A     47  42  83 MISG      29.88S
MONTPELIER     FAIR      65  47  52 W7        29.94S
BURLINGTON     PTSUNNY   65  47  52 S9        29.88F
$$

MAZ007-012-024-CTZ003-RIZ002-NYZ038-NYZ072-251200-
SOUTHERN NEW ENGLAND AND NY

CITY           SKY/WX    TMP DP  RH WIND       PRES   REMARKS
BOSTON         FAIR      62  48  60 SW14      29.95F
WORCESTER      FAIR      57  46  66 W13       30.00S
NANTUCKET      FAIR      55  54  96 SW15      30.02S
PROVIDENCE     FAIR      58  50  75 W9        30.01S
HARTFORD       FAIR      56  51  84 S3        30.01S
ALBANY         FAIR      59  50  72 S5        30.00S
NEW YORK CITY  FAIR      70  51  51 SW7       30.04F
$$

ANZ081-ANZ082-ANZ150-NHZ014-MEZ023>029-251200-
COASTAL MARINE OBSERVATIONS

STATION/POSITION TIME  TEMP    WIND        PRES    WAVE
                       AIR SEA DIR/SP/G            HT/PER
                 (UTC) (F)     (DEG/KT/KT) (MB)    (FT/S)
MOUNT DESERT ROC 1100   50     210/ 25/ 27 1008.9F
MATINICUS ROCK   1000   52     230/ 27/ 28 1009.3F
ISLE OF SHOALS   1000   58     250/ 19/ 20 1012.1R
JEFFREYS LEDGE   1036      52                N/A     4/ 5
CASHES LEDGE BUO 1050   55 51              1010.9    6/ 6
$$

.............KEY..............
   WCI - WIND CHILL
   TC  - TEMPERATURE IN CELSIUS
   VSB - VISIBILITY IN MILES
   HX  - HEAT INDEX
   FAIR- INDICATES FEW OR NO CLOUDS BELOW 12,000 FT, WITH NO
         SIGNIFICANT WEATHER AND/OR OBSTRUCTIONS TO VISIBILITY.




ASUS41 KGYX 251110
RWRGYX
WEATHER ROUNDUP FOR MAINE AND NEW HAMPSHIRE
NATIONAL WEATHER SERVICE GRAY ME
700 AM EDT FRI MAY 25 2018

MEZ002-005-006-010-012-015-018-020-021-024-026-027-029-251200-
MAINE

CITY           SKY/WX    TMP DP  RH WIND       PRES   REMARKS
PORTLAND       FAIR      63  49  60 SW8       29.85S
SANFORD        FAIR      65  49  56 W9        29.89S
BAR HARBOR     FAIR      54  49  83 SW10      29.77F
WISCASSET      FAIR      56  52  86 CALM      29.83F
ROCKLAND       FAIR      56  50  80 W12       29.80F
FRYEBURG       FAIR      67  45  45 VRB6      29.84F
LEWISTONAUBURN FAIR      53  49  86 CALM      29.83S
AUGUSTA        FAIR      56  47  71 SW7       29.80F
WATERVILLE     FAIR      50  48  93 SW6       29.76F
BANGOR         FAIR      55  48  77 S8        29.74F
GREENVILLE       N/A     64  45  49 VRB3      29.70F
MILLINOCKET    FAIR      53  45  74 CALM      29.71S
HOULTON        FAIR      50  48  93 S6        29.68
PRESQUE ISLE   LGT RAIN  48  46  93 S8        29.70R
FRENCHVILLE    LGT RAIN  48  45  89 S13       29.64F FOG
CARIBOU        LGT RAIN  49  46  90 S6        29.67S
$$

NHZ002-005-008-009-011-012-014-251200-
NEW HAMPSHIRE

CITY           SKY/WX    TMP DP  RH WIND       PRES   REMARKS
PORTSMOUTH     MOSUNNY   60  50  69 SW9       29.88F
ROCHESTER      FAIR      61  51  70 CALM      29.89F
NASHUA         FAIR      64  50  60 SW5       29.94F
MANCHESTER     FAIR      63  49  60 S6        29.91F
CONCORD        FAIR      58  51  78 SE6       29.92F
LACONIA        FAIR      59  49  69 NW3       29.90F
PLYMOUTH       FAIR      45  44  97 CALM      29.91F
BERLIN         FAIR      52  46  80 CALM      29.86S
WHITEFIELD     FAIR      46  43  89 CALM      29.89F
JAFFREY        FAIR      54  51  90 S9        29.99F
KEENE          FAIR      49  48  97 S3        29.99
LEBANON        FAIR      52  46  80 CALM      29.92F
MT WASHINGTON  NOT AVBL
$$

VTZ005-007-008-251200-
VERMONT

CITY           SKY/WX    TMP DP  RH WIND       PRES   REMARKS
ST JOHNSBURY     N/A     47  42  83 MISG      29.88S
MONTPELIER     FAIR      65  47  52 W7        29.94S
BURLINGTON     PTSUNNY   65  47  52 S9        29.88F
$$

MAZ007-012-024-CTZ003-RIZ002-NYZ038-NYZ072-251200-
SOUTHERN NEW ENGLAND AND NY

CITY           SKY/WX    TMP DP  RH WIND       PRES   REMARKS
BOSTON         FAIR      62  48  60 SW14      29.95F
WORCESTER      FAIR      57  46  66 W13       30.00S
NANTUCKET      FAIR      55  54  96 SW15      30.02S
PROVIDENCE     FAIR      58  50  75 W9        30.01S
HARTFORD       FAIR      56  51  84 S3        30.01S
ALBANY         FAIR      59  50  72 S5        30.00S
NEW YORK CITY  FAIR      70  51  51 SW7       30.04F
$$

ANZ081-ANZ082-ANZ150-NHZ014-MEZ023>029-251200-
COASTAL MARINE OBSERVATIONS

STATION/POSITION TIME  TEMP    WIND        PRES    WAVE
                       AIR SEA DIR/SP/G            HT/PER
                 (UTC) (F)     (DEG/KT/KT) (MB)    (FT/S)
MOUNT DESERT ROC 1100   50     210/ 25/ 27 1008.9F
MATINICUS ROCK   1100   53     230/ 25/ 26 1009.2F
ISLE OF SHOALS   1100   59     240/ 18/ 19 1011.7F
JEFFREYS LEDGE   1036      52                N/A     4/ 5
CASHES LEDGE BUO 1050   55 51              1010.9    6/ 6
$$

.............KEY..............
   WCI - WIND CHILL
   TC  - TEMPERATURE IN CELSIUS
   VSB - VISIBILITY IN MILES
   HX  - HEAT INDEX
   FAIR- INDICATES FEW OR NO CLOUDS BELOW 12,000 FT, WITH NO
         SIGNIFICANT WEATHER AND/OR OBSTRUCTIONS TO VISIBILITY.






Office: BOX ASUS41 KBOX 251110 RWRBOX REGIONAL WEATHER ROUNDUP NATIONAL WEATHER SERVICE BOSTON/NORTON MA 700 AM EDT FRI MAY 25 2018 NOTE: "FAIR" INDICATES FEW OR NO CLOUDS BELOW 12,000 FEET WITH NO SIGNIFICANT WEATHER AND/OR OBSTRUCTIONS TO VISIBILITY. MAZALL-251200- EASTERN MASSACHUSETTS CITY SKY/WX TMP DP RH WIND PRES REMARKS BOSTON FAIR 62 48 60 SW14 29.95F BEVERLY FAIR 60 50 69 W9 29.93F LAWRENCE FAIR 61 49 64 S8 29.95F BEDFORD FAIR 58 49 72 SW8 29.95S BLUE HILL N/A 55 47 74 W16 29.96F NORWOOD FAIR 58 50 75 SW5 29.97F MARSHFIELD FAIR 57 50 77 W9 29.97S PLYMOUTH FAIR 54 51 90 SW7 29.99F TAUNTON FAIR 57 51 80 W3 29.99S NEW BEDFORD FAIR 56 53 90 SW6 29.99F $$ MAZALL-251200- CAPE COD AND THE ISLANDS CITY SKY/WX TMP DP RH WIND PRES REMARKS FALMOUTH FAIR 57 54 88 SW8 30.01S HYANNIS FAIR 59 52 77 SW12 29.98S CHATHAM FAIR 59 55 87 SW9G20 30.00S PROVINCETOWN FAIR 56 52 86 SW13 29.97F NANTUCKET FAIR 55 54 96 SW15 30.02S MARTHAS VNYRD FAIR 58 53 84 SW7 30.01S $$ MAZALL-251200- CENTRAL AND WESTERN MASSACHUSETTS CITY SKY/WX TMP DP RH WIND PRES REMARKS WORCESTER FAIR 57 46 66 W13 30.00S FITCHBURG FAIR 61 50 67 NW10 29.96F ORANGE FAIR 51 50 96 CALM 30.01S SPRINGFIELD MOSUNNY 52 51 95 CALM 30.00S WESTFIELD FAIR 53 52 96 CALM 30.00S NORTH ADAMS FAIR 49 46 90 CALM 30.00F PITTSFIELD FAIR 50 46 86 CALM 30.02S $$ RIZALL-251200- RHODE ISLAND CITY SKY/WX TMP DP RH WIND PRES REMARKS PROVIDENCE FAIR 58 50 75 W9 30.01S NEWPORT FAIR 59 51 75 VRB3 30.01S BLOCK ISLAND FAIR 57 53 86 SW14 30.04R SMITHFIELD FAIR 57 49 74 MISG 30.00F WESTERLY FAIR 54 54 100 W3 30.03S $$ CTZALL-251200- CONNECTICUT CITY SKY/WX TMP DP RH WIND PRES REMARKS BRADLEY INTL FAIR 56 51 84 S3 30.01S HARTFORD FAIR 58 52 80 S5 30.01S BRIDGEPORT FAIR 61 54 77 W5 30.03S DANBURY FAIR 57 53 86 CALM 30.05F GROTON FAIR 56 54 93 W3 30.02S NEW HAVEN FAIR 57 53 86 S3 30.03F CHESTER FAIR 61 52 72 SW7 30.03S MERIDEN FAIR 53 51 93 CALM 30.03S WILLIMANTIC FOG 49 49 100 CALM 30.03S VSB 1/4 OXFORD FAIR 58 52 80 CALM 30.05S $$ MEZ002-015-021-024-NHZ003-005-008-011-012-014-VTZ005-008-251200- NORTHERN NEW ENGLAND CITY SKY/WX TMP DP RH WIND PRES REMARKS PORTLAND ME FAIR 63 49 60 SW8 29.85S BANGOR ME FAIR 55 48 77 S8 29.74F CONCORD NH FAIR 58 51 78 SE6 29.92F MANCHESTER NH FAIR 63 49 60 S6 29.91F NASHUA NH FAIR 64 50 60 SW5 29.94F PORTSMOUTH NH MOSUNNY 60 50 69 SW9 29.88F JAFFREY NH FAIR 54 51 90 S9 29.99F KEENE NH FAIR 49 48 97 S3 29.99 BURLINGTON VT PTSUNNY 65 47 52 S9 29.88F MT. WASHINGTON NOT AVBL $$ NYZ052-076-251200- EASTERN NEW YORK CITY SKY/WX TMP DP RH WIND PRES REMARKS ALBANY FAIR 59 50 72 S5 30.00S NEW YORK CITY FAIR 70 51 51 SW7 30.04F $$ ANZALL-251200- MARINE OBSERVATIONS STATION/POSITION TIME TEMP WIND PRES VSBY WAVE AIR SEA DIR/SP/G HT/PER (UTC) (F) (DEG/KT/KT) (MB) (MI) (FT/S) BOSTON BUOY 1050 56 55 230/ 14/ 16 1013.8F 2/ 3 BUZZARDS BAY 1000 56 240/ 17/ 18 1016.8S NANTUCKET SOUND 1050 57 56 240/ 14/ 16 1016.0F 2/ 3 MASS BAY-STELLWA 1004 55 54 1012.3S 3/ 4 ISLE OF SHOALS 1100 59 240/ 18/ 19 1011.7F S OF BLOCK IS 1043 51 N/A 2/ 4 $$ ......................KEY......................... SKY/WX - SKY CONDITION/PRESENT WEATHER TMP - TEMPERATURE IN FAHRENHEIT DWPT - DEWPOINT IN FAHRENHEIT RH - RELATIVE HUMIDITY IN PERCENT WIND - DIRECTION AND SPEED IN MPH PRES - MEAN SEA LEVEL PRESSURE IN INCHES OF HG WCI - WIND CHILL INDEX VSB - VISIBILITY IN MILES HX - HEAT INDEX TC - TEMPERATURE IN CELSIUS VRB - VARIABLE WIND DIRECTION N/A - NOT AVAILABLE